Weather History for Fort Benning, GA

Change the Weather History Date:

Friday, September 7, 2012

  Actual Average Record
Temperature  
Mean Temperature 81 °F -  
Max Temperature 91 °F 85 °F 96 °F (2010)
Min Temperature 71 °F 64 °F 53 °F (1997)
Cooling Degree Days 16    
Growing Degree Days 31 (Base 50)    
Moisture  
Dew Point 73 °F    
Average Humidity 91    
Maximum Humidity 100    
Minimum Humidity 59    
Precipitation  
Precipitation 0.24 in - - ()
Sea Level Pressure  
Sea Level Pressure 29.90 in    
Wind  
Wind Speed 2 mph (ESE)    
Max Wind Speed 13 mph    
Max Gust Speed 18 mph    
Visibility 6 miles    
Events Fog , Rain , Thunderstorm    
Averages and records for this station are not official NWS values.
T = Trace of Precipitation, MM = Missing Value Source: NWS Daily Summary

Daily Weather History Graph

Daily Weather History Graph

Search for Another Location

Airport:

Trip Planner

Search our weather history database for the weather conditions in past years. The results will help you decide how hot, cold, wet, or windy it might be!

Date:

Astronomy

Sep. 07, 2012 Rise Set
Actual Time 7:19 AM EDT 7:55 PM EDT
Civil Twilight 6:54 AM EDT 8:20 PM EDT
Nautical Twilight 6:25 AM EDT 8:49 PM EDT
Astronomical Twilight 5:55 AM EDT 9:19 PM EDT
Moon No Moon Rise 1:45 PM EDT (9/7)
Length of Visible Light 13h 26m
Length of Day
12h 36m
Waning Gibbous, 58% of the Moon is Illuminated
Sep 7
Waning Gibbous
Sep 8
Last Quarter
Sep 15
New
Sep 22
First Quarter
Sep 29
Full

Hourly Weather History & Observations

Time (EDT) Temp. Heat Index Dew Point Humidity Pressure Visibility Wind Dir Wind Speed Gust Speed Precip Events Conditions
12:55 AM 73.2 °F - 73.0 °F 99% 29.94 in 10.0 mi Calm Calm - N/A   Mostly Cloudy
1:55 AM 74.5 °F - 74.1 °F 99% 29.94 in 10.0 mi Calm Calm - N/A   Mostly Cloudy
2:55 AM 74.8 °F - 74.5 °F 99% 29.93 in 10.0 mi Calm Calm - N/A   Mostly Cloudy
3:55 AM 74.8 °F - 74.5 °F 99% 29.91 in 10.0 mi Calm Calm - N/A   Mostly Cloudy
4:55 AM 73.9 °F - 73.6 °F 99% 29.92 in 10.0 mi Calm Calm - N/A   Partly Cloudy
5:55 AM 73.2 °F - 72.9 °F 99% 29.92 in 10.0 mi Calm Calm - N/A   Scattered Clouds
6:04 AM 73.4 °F - 73.4 °F 100% 29.92 in 8.0 mi Calm Calm - N/A   Scattered Clouds
6:14 AM 73.4 °F - 73.4 °F 100% 29.92 in 2.5 mi Calm Calm - N/A   Scattered Clouds
6:21 AM 73.4 °F - 71.6 °F 94% 29.92 in 3.0 mi Calm Calm - N/A   Partly Cloudy
6:23 AM 73.4 °F - 71.6 °F 94% 29.92 in 3.0 mi Calm Calm - N/A   Partly Cloudy
6:34 AM 71.6 °F - 71.6 °F 100% 29.93 in 5.0 mi SSE 3.5 mph - N/A   Clear
6:53 AM 73.4 °F - 71.6 °F 94% 29.93 in 2.5 mi Calm Calm - N/A   Clear
6:55 AM 72.5 °F - 72.1 °F 99% 29.93 in 1.8 mi Calm Calm - 0.01 in   Clear
6:56 AM 71.6 °F - 71.6 °F 100% 29.93 in 1.2 mi Calm Calm - N/A   Clear
6:57 AM 71.6 °F - 71.6 °F 100% 29.93 in 1.0 mi Calm Calm - N/A   Clear
7:00 AM 71.6 °F - 71.6 °F 100% 29.93 in 0.8 mi Calm Calm - N/A   Partly Cloudy
7:01 AM 71.6 °F - 71.6 °F 100% 29.93 in 0.8 mi Calm Calm - N/A   Partly Cloudy
7:06 AM 71.6 °F - 71.6 °F 100% 29.93 in 0.5 mi Calm Calm - N/A Fog Fog
7:10 AM 71.6 °F - 71.6 °F 100% 29.93 in 0.2 mi Calm Calm - N/A Fog Fog
7:11 AM 71.6 °F - 71.6 °F 100% 29.93 in 0.2 mi Calm Calm - N/A Fog Fog
7:25 AM 73.4 °F - 71.6 °F 94% 29.94 in 2.5 mi Calm Calm - N/A   Clear
7:32 AM 73.4 °F - 71.6 °F 94% 29.94 in 3.0 mi Calm Calm - N/A   Clear
7:55 AM 72.5 °F - 72.1 °F 99% 29.95 in 10.0 mi Calm Calm - N/A   Clear
8:12 AM 73.4 °F - 73.4 °F 100% 29.96 in 9.0 mi Calm Calm - N/A   Partly Cloudy
8:24 AM 75.2 °F - 75.2 °F 100% 29.96 in 9.0 mi Calm Calm - N/A   Mostly Cloudy
8:33 AM 75.2 °F - 75.2 °F 100% 29.95 in 9.0 mi ESE 1.2 mph - N/A   Mostly Cloudy
9:06 AM 78.8 °F - 75.2 °F 89% 29.96 in 10.0 mi Calm Calm - N/A   Light Drizzle
9:14 AM 78.8 °F - 75.2 °F 89% 29.96 in 10.0 mi Calm Calm - N/A   Clear
9:15 AM 78.8 °F - 75.2 °F 89% 29.96 in 10.0 mi Calm Calm - N/A   Light Drizzle
9:16 AM 78.8 °F - 75.2 °F 89% 29.96 in 10.0 mi Calm Calm - N/A   Clear
9:18 AM 78.8 °F - 75.2 °F 89% 29.96 in 10.0 mi Calm Calm - N/A   Light Drizzle
9:44 AM 80.6 °F 86.2 °F 75.2 °F 84% 29.96 in 10.0 mi Calm Calm - N/A   Clear
9:45 AM 80.6 °F 86.2 °F 75.2 °F 84% 29.96 in 10.0 mi Calm Calm - N/A   Light Drizzle
9:48 AM 80.6 °F 86.2 °F 75.2 °F 84% 29.96 in 10.0 mi Calm Calm - N/A   Clear
9:55 AM 81.0 °F 86.9 °F 75.4 °F 83% 29.96 in 10.0 mi NW 3.5 mph - 0.00 in   Clear
10:55 AM 84.2 °F 92.6 °F 75.4 °F 75% 29.97 in 10.0 mi Calm Calm - N/A   Clear
11:55 AM 87.8 °F 98.1 °F 75.7 °F 67% 29.96 in 10.0 mi Variable 4.6 mph - N/A   Partly Cloudy
12:03 PM 87.8 °F 97.6 °F 75.2 °F 66% 29.96 in 10.0 mi NW 4.6 mph - N/A   Overcast
12:16 PM 87.8 °F 99.7 °F 77.0 °F 70% 29.95 in 10.0 mi WSW 4.6 mph - N/A   Light Drizzle
12:52 PM 84.2 °F 92.3 °F 75.2 °F 74% 29.94 in 10.0 mi SSE 3.5 mph - N/A   Scattered Clouds
12:55 PM 84.6 °F 94.3 °F 76.5 °F 77% 29.94 in 10.0 mi ESE 3.5 mph - 0.05 in   Scattered Clouds
1:55 PM 87.3 °F 95.8 °F 74.1 °F 65% 29.92 in 10.0 mi Calm Calm - N/A   Overcast
2:20 PM 86.0 °F 95.1 °F 75.2 °F 70% 29.92 in 10.0 mi WSW 8.1 mph - N/A   Mostly Cloudy
2:55 PM 83.8 °F 90.4 °F 73.6 °F 71% 29.90 in 10.0 mi Variable 4.6 mph - N/A   Mostly Cloudy
3:55 PM 91.0 °F 102.2 °F 75.6 °F 60% 29.87 in 10.0 mi Variable 3.5 mph - N/A   Clear
4:15 PM 89.6 °F 98.2 °F 73.4 °F 59% 29.87 in 10.0 mi SW 6.9 mph - N/A Thunderstorm Mostly Cloudy
4:25 PM 89.6 °F 98.2 °F 73.4 °F 59% 29.87 in 10.0 mi Variable 3.5 mph - N/A Thunderstorm Thunderstorm
4:35 PM 86.0 °F 93.4 °F 73.4 °F 66% 29.87 in 10.0 mi North 10.4 mph - N/A Rain , Thunderstorm Light Thunderstorms and Rain
4:43 PM 82.4 °F 87.2 °F 71.6 °F 70% 29.88 in 10.0 mi Calm Calm - N/A   Light Drizzle
4:54 PM 82.4 °F 88.2 °F 73.4 °F 74% 29.88 in 3.0 mi Variable 3.5 mph - N/A Rain Light Rain
4:55 PM 81.9 °F 87.7 °F 74.1 °F 77% 29.88 in 2.5 mi NE 6.9 mph - 0.09 in Rain Light Rain
4:56 PM 82.4 °F 89.5 °F 75.2 °F 79% 29.87 in 1.8 mi NE 10.4 mph - N/A Rain Heavy Rain
4:57 PM 82.4 °F 89.5 °F 75.2 °F 79% 29.87 in 1.8 mi NE 11.5 mph - N/A Rain , Thunderstorm Heavy Rain
4:58 PM 80.6 °F 86.2 °F 75.2 °F 84% 29.88 in 1.5 mi ENE 8.1 mph - N/A Rain , Thunderstorm Heavy Rain
5:00 PM 80.6 °F 86.2 °F 75.2 °F 84% 29.88 in 1.2 mi ENE 8.1 mph - N/A Rain , Thunderstorm Heavy Rain
5:04 PM 80.6 °F 86.2 °F 75.2 °F 84% 29.88 in 1.5 mi ENE 9.2 mph - N/A Rain , Thunderstorm Light Rain
5:05 PM 78.8 °F - 75.2 °F 89% 29.88 in 1.8 mi ENE 10.4 mph - N/A Rain , Thunderstorm Light Rain
5:06 PM 78.8 °F - 75.2 °F 89% 29.88 in 2.0 mi East 10.4 mph - N/A Rain , Thunderstorm Light Rain
5:08 PM 78.8 °F - 77.0 °F 94% 29.88 in 3.0 mi East 8.1 mph - N/A Rain , Thunderstorm Light Rain
5:17 PM 80.6 °F 86.2 °F 75.2 °F 84% 29.88 in 10.0 mi NE 5.8 mph - N/A Thunderstorm Overcast
5:23 PM 80.6 °F 86.2 °F 75.2 °F 84% 29.88 in 10.0 mi NE 12.7 mph 18.4 mph N/A Thunderstorm Thunderstorm
5:33 PM 78.8 °F - 73.4 °F 83% 29.88 in 10.0 mi East 6.9 mph - N/A Thunderstorm Thunderstorm
5:48 PM 78.8 °F - 73.4 °F 83% 29.88 in 10.0 mi SE 8.1 mph - N/A   Mostly Cloudy
5:55 PM 78.1 °F - 73.9 °F 87% 29.87 in 10.0 mi East 6.9 mph - 0.09 in   Mostly Cloudy
6:01 PM 77.0 °F - 73.4 °F 89% 29.87 in 10.0 mi ESE 6.9 mph - N/A Thunderstorm Mostly Cloudy
6:30 PM 78.8 °F - 71.6 °F 78% 29.88 in 10.0 mi SW 5.8 mph - N/A Thunderstorm Light Drizzle
6:33 PM 78.8 °F - 71.6 °F 78% 29.88 in 10.0 mi Variable 3.5 mph - N/A Rain , Thunderstorm Light Thunderstorms and Rain
6:42 PM 78.8 °F - 71.6 °F 78% 29.88 in 10.0 mi WSW 3.5 mph - N/A Thunderstorm Thunderstorm
6:45 PM 77.0 °F - 71.6 °F 83% 29.88 in 10.0 mi West 6.9 mph - N/A Rain , Thunderstorm Light Thunderstorms and Rain
6:53 PM 77.0 °F - 71.6 °F 83% 29.87 in 10.0 mi West 6.9 mph - N/A Thunderstorm Light Drizzle
6:55 PM 76.8 °F - 71.6 °F 84% 29.88 in 10.0 mi West 5.8 mph - 0.00 in Thunderstorm Light Drizzle
7:26 PM 77.0 °F - 71.6 °F 83% 29.86 in 10.0 mi Calm Calm - N/A   Mostly Cloudy
7:55 PM 77.0 °F - 73.9 °F 90% 29.86 in 10.0 mi SE 3.5 mph - 0.00 in   Partly Cloudy
8:06 PM 77.0 °F - 73.4 °F 89% 29.86 in 10.0 mi Calm Calm - N/A   Light Drizzle
8:26 PM 75.2 °F - 73.4 °F 94% 29.86 in 10.0 mi ESE 5.8 mph - N/A   Partly Cloudy
8:55 PM 73.9 °F - 72.7 °F 96% 29.86 in 10.0 mi Calm Calm - 0.00 in   Clear
9:55 PM 72.7 °F - 72.1 °F 98% 29.86 in 9.0 mi Calm Calm - N/A   Clear
9:58 PM 73.4 °F - 71.6 °F 94% 29.86 in 9.0 mi Calm Calm - N/A   Clear
10:08 PM 73.4 °F - 71.6 °F 94% 29.86 in 7.0 mi Calm Calm - N/A   Clear
10:28 PM 71.6 °F - 71.6 °F 100% 29.86 in 7.0 mi Calm Calm - N/A   Clear
10:36 PM 71.6 °F - 71.6 °F 100% 29.87 in 3.0 mi Calm Calm - N/A   Clear
10:39 PM 71.6 °F - 71.6 °F 100% 29.87 in 2.0 mi Calm Calm - N/A   Clear
10:40 PM 71.6 °F - 71.6 °F 100% 29.87 in 1.5 mi Calm Calm - N/A   Clear
10:41 PM 71.6 °F - 71.6 °F 100% 29.87 in 1.0 mi Calm Calm - N/A   Clear
10:43 PM 71.6 °F - 71.6 °F 100% 29.86 in 0.8 mi Calm Calm - N/A   Clear
10:47 PM 71.6 °F - 71.6 °F 100% 29.87 in 0.5 mi Calm Calm - N/A Fog Fog
10:48 PM 71.6 °F - 71.6 °F 100% 29.87 in 0.5 mi Calm Calm - N/A Fog Fog
10:50 PM 71.6 °F - 71.6 °F 100% 29.87 in 0.5 mi Calm Calm - N/A Fog Fog
10:51 PM 71.6 °F - 71.6 °F 100% 29.87 in 0.8 mi Calm Calm - N/A   Clear
10:52 PM 71.6 °F - 71.6 °F 100% 29.87 in 0.8 mi Calm Calm - N/A   Clear
10:53 PM 71.6 °F - 71.6 °F 100% 29.87 in 1.0 mi Calm Calm - N/A   Clear
10:55 PM 71.8 °F - 71.4 °F 99% 29.86 in 1.0 mi Calm Calm - N/A   Clear
10:57 PM 71.6 °F - 71.6 °F 100% 29.86 in 1.2 mi Calm Calm - N/A   Clear
10:58 PM 71.6 °F - 71.6 °F 100% 29.86 in 1.2 mi Calm Calm - N/A   Light Drizzle
11:00 PM 71.6 °F - 71.6 °F 100% 29.86 in 1.2 mi Calm Calm - N/A   Clear
11:03 PM 71.6 °F - 71.6 °F 100% 29.86 in 1.0 mi Calm Calm - N/A   Clear
11:04 PM 71.6 °F - 71.6 °F 100% 29.86 in 1.0 mi Calm Calm - N/A   Clear
11:08 PM 71.6 °F - 71.6 °F 100% 29.86 in 1.2 mi Calm Calm - N/A   Clear
11:09 PM 71.6 °F - 71.6 °F 100% 29.86 in 1.5 mi Calm Calm - N/A   Clear
11:11 PM 71.6 °F - 71.6 °F 100% 29.86 in 1.8 mi Calm Calm - N/A   Clear
11:14 PM 71.6 °F - 71.6 °F 100% 29.86 in 2.0 mi Calm Calm - N/A   Clear
11:19 PM 71.6 °F - 71.6 °F 100% 29.86 in 1.8 mi Calm Calm - N/A   Clear
11:20 PM 71.6 °F - 71.6 °F 100% 29.86 in 1.5 mi Calm Calm - N/A   Clear
11:23 PM 71.6 °F - 71.6 °F 100% 29.86 in 1.2 mi Calm Calm - N/A   Clear
11:24 PM 71.6 °F - 71.6 °F 100% 29.86 in 1.0 mi Calm Calm - N/A   Clear
11:26 PM 71.6 °F - 71.6 °F 100% 29.85 in 1.0 mi Calm Calm - N/A   Clear
11:32 PM 71.6 °F - 71.6 °F 100% 29.85 in 1.2 mi SE 4.6 mph - N/A   Clear
11:34 PM 71.6 °F - 71.6 °F 100% 29.85 in 1.5 mi ESE 3.5 mph - N/A   Clear
11:35 PM 71.6 °F - 71.6 °F 100% 29.85 in 2.0 mi ESE 3.5 mph - N/A   Clear
11:38 PM 71.6 °F - 71.6 °F 100% 29.85 in 3.0 mi ESE 4.6 mph - N/A   Clear
11:55 PM 71.6 °F - 71.2 °F 99% 29.85 in 10.0 mi Calm Calm - 0.00 in   Clear